| time (UTC) | temp C | wind direction | speed KPH | gust KPH | rain 1hr cm | rain 24hr cm | rain mn cm | humidity % | barometer mb |
| 20260506151121 | 6 | 334 | 1.6 | 6.4 | 0.00 | 0.00 | 0.00 | 61 | 1016.6 |
| 20260506150620 | 6 | 34 | 1.6 | 6.4 | 0.00 | 0.00 | 0.00 | 61 | 1016.6 |
| 20260506150117 | 6 | 326 | 1.6 | 4.8 | 0.00 | 0.00 | 0.00 | 64 | 1016.7 |
| 20260506145616 | 5 | 298 | 1.6 | 4.8 | 0.00 | 0.00 | 0.00 | 66 | 1016.7 |
| 20260506145114 | 5 | 302 | 0.0 | 3.2 | 0.00 | 0.00 | 0.00 | 66 | 1016.9 |
| 20260506144613 | 5 | 344 | 0.0 | 3.2 | 0.00 | 0.00 | 0.00 | 70 | 1016.8 |
| 20260506144115 | 4 | 326 | 0.0 | 3.2 | 0.00 | 0.00 | 0.00 | 69 | 1016.9 |
| 20260506143111 | 3 | 300 | 0.0 | 3.2 | 0.00 | 0.00 | 0.00 | 72 | 1016.9 |
| 20260506142611 | 3 | 309 | 0.0 | 1.6 | 0.00 | 0.00 | 0.00 | 74 | 1017.1 |
| 20260506142111 | 3 | 309 | 0.0 | 1.6 | 0.00 | 0.00 | 0.00 | 74 | 1017.1 |
| 20260506141609 | 2 | 285 | 0.0 | 1.6 | 0.00 | 0.00 | 0.00 | 78 | 1017.1 |
| 20260506140608 | 2 | 285 | 0.0 | 1.6 | 0.00 | 0.00 | 0.00 | 80 | 1017.1 |
| 20260506140109 | 1 | 284 | 0.0 | 1.6 | 0.00 | 0.00 | 0.00 | 80 | 1016.9 |
| 20260506135607 | 1 | 277 | 0.0 | 1.6 | 0.00 | 0.00 | 0.00 | 82 | 1016.9 |
| 20260506135105 | 1 | 277 | 0.0 | 3.2 | 0.00 | 0.00 | 0.00 | 82 | 1017.1 |
| 20260506134602 | 1 | 317 | 0.0 | 3.2 | 0.00 | 0.00 | 0.00 | 83 | 1016.9 |
| 20260506134101 | 1 | 322 | 0.0 | 3.2 | 0.00 | 0.00 | 0.00 | 82 | 1016.9 |
| 20260506133555 | 0 | 232 | 0.0 | 0.0 | 0.00 | 0.00 | 0.00 | 84 | 1016.9 |
| 20260506133050 | 0 | 232 | 0.0 | 0.0 | 0.00 | 0.00 | 0.00 | 85 | 1017.1 |
| 20260506132544 | 0 | 232 | 0.0 | 0.0 | 0.00 | 0.00 | 0.00 | 85 | 1017.1 |
| 20260506132038 | 0 | 232 | 0.0 | 0.0 | 0.00 | 0.00 | 0.00 | 85 | 1016.9 |
| 20260506131531 | 0 | 221 | 0.0 | 0.0 | 0.00 | 0.00 | 0.00 | 84 | 1017.1 |
| 20260506131030 | 0 | 221 | 0.0 | 0.0 | 0.00 | 0.00 | 0.00 | 83 | 1016.9 |
| 20260506130530 | 0 | 222 | 0.0 | 0.0 | 0.00 | 0.00 | 0.00 | 83 | 1016.9 |
| 20260506130029 | 0 | 222 | 0.0 | 0.0 | 0.00 | 0.00 | 0.00 | 83 | 1016.9 |
| 20260506125529 | 0 | 221 | 0.0 | 0.0 | 0.00 | 0.00 | 0.00 | 84 | 1016.9 |
| 20260506125029 | 0 | 221 | 0.0 | 1.6 | 0.00 | 0.00 | 0.00 | 85 | 1016.9 |
| 20260506124530 | 0 | 221 | 0.0 | 0.0 | 0.00 | 0.00 | 0.00 | 84 | 1016.9 |
| 20260506124030 | 0 | 217 | 0.0 | 1.6 | 0.00 | 0.00 | 0.00 | 84 | 1016.9 |
| 20260506123529 | 0 | 209 | 0.0 | 1.6 | 0.00 | 0.00 | 0.00 | 84 | 1016.9 |
| 20260506123030 | 0 | 244 | 0.0 | 1.6 | 0.00 | 0.00 | 0.00 | 84 | 1016.9 |
| 20260506122529 | 0 | 244 | 0.0 | 1.6 | 0.00 | 0.00 | 0.00 | 83 | 1016.9 |
| 20260506121530 | 0 | 245 | 0.0 | 1.6 | 0.00 | 0.00 | 0.00 | 82 | 1016.9 |
| 20260506121029 | 0 | 245 | 0.0 | 1.6 | 0.00 | 0.00 | 0.00 | 82 | 1016.9 |
| 20260506120531 | 0 | 238 | 0.0 | 1.6 | 0.00 | 0.00 | 0.00 | 81 | 1017.1 |
| 20260506120029 | 1 | 242 | 0.0 | 1.6 | 0.00 | 0.00 | 0.00 | 80 | 1017.1 |
| 20260506115032 | 1 | 319 | 0.0 | 3.2 | 0.00 | 0.00 | 0.00 | 80 | 1016.9 |
| 20260506114536 | 1 | 319 | 0.0 | 3.2 | 0.00 | 0.00 | 0.00 | 80 | 1016.9 |
| 20260506114033 | 1 | 254 | 0.0 | 1.6 | 0.00 | 0.00 | 0.00 | 79 | 1016.9 |
| 20260506113530 | 1 | 329 | 0.0 | 1.6 | 0.00 | 0.00 | 0.00 | 79 | 1016.9 |
| 20260506113030 | 1 | 9 | 0.0 | 1.6 | 0.00 | 0.00 | 0.00 | 79 | 1017.1 |
| 20260506112529 | 1 | 67 | 0.0 | 1.6 | 0.00 | 0.00 | 0.00 | 77 | 1017.1 |
| 20260506112028 | 1 | 266 | 0.0 | 1.6 | 0.00 | 0.00 | 0.00 | 77 | 1017.1 |
| 20260506111531 | 1 | 333 | 0.0 | 1.6 | 0.00 | 0.00 | 0.00 | 78 | 1016.9 |
| 20260506111030 | 1 | 328 | 0.0 | 1.6 | 0.00 | 0.00 | 0.00 | 76 | 1016.9 |
| 20260506110030 | 1 | 302 | 0.0 | 1.6 | 0.00 | 0.00 | 0.00 | 77 | 1016.9 |
| 20260506105529 | 2 | 279 | 0.0 | 1.6 | 0.00 | 0.00 | 0.00 | 77 | 1017.1 |
| 20260506105030 | 2 | 279 | 0.0 | 1.6 | 0.00 | 0.00 | 0.00 | 76 | 1016.9 |
| 20260506104033 | 2 | 255 | 0.0 | 1.6 | 0.00 | 0.00 | 0.00 | 75 | 1016.9 |
| 20260506103532 | 2 | 267 | 0.0 | 1.6 | 0.00 | 0.00 | 0.00 | 76 | 1016.8 |
| 20260506103033 | 2 | 270 | 0.0 | 1.6 | 0.00 | 0.00 | 0.00 | 74 | 1016.8 |
| 20260506102532 | 2 | 254 | 0.0 | 1.6 | 0.00 | 0.00 | 0.00 | 73 | 1016.8 |
| 20260506102034 | 2 | 346 | 0.0 | 1.6 | 0.00 | 0.00 | 0.00 | 74 | 1016.8 |
| 20260506101537 | 2 | 298 | 0.0 | 3.2 | 0.00 | 0.00 | 0.00 | 73 | 1016.9 |
| 20260506101032 | 2 | 302 | 1.6 | 4.8 | 0.00 | 0.00 | 0.00 | 74 | 1016.8 |
| 20260506100529 | 2 | 330 | 1.6 | 4.8 | 0.00 | 0.00 | 0.00 | 73 | 1016.9 |
| 20260506100029 | 2 | 44 | 1.6 | 3.2 | 0.00 | 0.00 | 0.00 | 75 | 1016.7 |
| 20260506095529 | 2 | 329 | 1.6 | 6.4 | 0.00 | 0.00 | 0.00 | 74 | 1016.9 |
| 20260506094529 | 2 | 100 | 1.6 | 3.2 | 0.00 | 0.00 | 0.00 | 74 | 1016.8 |
| 20260506094030 | 2 | 329 | 0.0 | 3.2 | 0.00 | 0.00 | 0.00 | 75 | 1016.9 |
| 20260506093529 | 2 | 32 | 0.0 | 3.2 | 0.00 | 0.00 | 0.00 | 75 | 1016.9 |
| 20260506093029 | 2 | 295 | 0.0 | 1.6 | 0.00 | 0.00 | 0.00 | 79 | 1016.9 |
| 20260506092529 | 2 | 23 | 0.0 | 1.6 | 0.00 | 0.00 | 0.00 | 79 | 1017.1 |
| 20260506091531 | 2 | 46 | 0.0 | 3.2 | 0.00 | 0.00 | 0.00 | 78 | 1016.9 |
| 20260506091029 | 2 | 48 | 0.0 | 3.2 | 0.00 | 0.00 | 0.00 | 76 | 1017.1 |
| 20260506090532 | 2 | 42 | 0.0 | 3.2 | 0.00 | 0.00 | 0.00 | 75 | 1017.1 |
| 20260506090033 | 2 | 232 | 0.0 | 3.2 | 0.00 | 0.00 | 0.00 | 75 | 1017.1 |
| 20260506085532 | 2 | 304 | 0.0 | 3.2 | 0.00 | 0.00 | 0.00 | 73 | 1017.1 |
| 20260506085023 | 2 | 223 | 0.0 | 1.6 | 0.00 | 0.00 | 0.00 | 72 | 1017.1 |
| 20260506084014 | 2 | 246 | 0.0 | 0.0 | 0.00 | 0.00 | 0.00 | 69 | 1017.1 |
| 20260506083511 | 2 | 246 | 0.0 | 1.6 | 0.00 | 0.00 | 0.00 | 70 | 1016.9 |
| 20260506083012 | 2 | 246 | 0.0 | 1.6 | 0.00 | 0.00 | 0.00 | 71 | 1017.1 |
| 20260506082510 | 2 | 241 | 0.0 | 3.2 | 0.00 | 0.00 | 0.00 | 72 | 1017.1 |
| 20260506081509 | 2 | 182 | 0.0 | 1.6 | 0.00 | 0.00 | 0.00 | 72 | 1017.2 |
| 20260506081009 | 2 | 182 | 0.0 | 3.2 | 0.00 | 0.00 | 0.00 | 72 | 1017.1 |
| 20260506080509 | 2 | 213 | 0.0 | 3.2 | 0.00 | 0.00 | 0.00 | 75 | 1017.2 |
| 20260506073503 | 2 | 253 | 1.6 | 3.2 | 0.00 | 0.00 | 0.00 | 75 | 1017.3 |
| 20260506073004 | 3 | 229 | 0.0 | 3.2 | 0.00 | 0.00 | 0.00 | 72 | 1017.2 |
| 20260506071502 | 4 | 93 | 0.0 | 1.6 | 0.00 | 0.00 | 0.00 | 72 | 1017.3 |
| 20260506071001 | 4 | 93 | 0.0 | 3.2 | 0.00 | 0.00 | 0.00 | 71 | 1017.3 |
| 20260506062431 | 5 | 165 | 0.0 | 0.0 | 0.00 | 0.00 | 0.00 | 62 | 1017.1 |
| 20260506061930 | 5 | 165 | 0.0 | 0.0 | 0.00 | 0.00 | 0.00 | 62 | 1016.9 |
| 20260506061431 | 5 | 165 | 0.0 | 0.0 | 0.00 | 0.00 | 0.00 | 65 | 1017.1 |
| 20260506060929 | 6 | 165 | 0.0 | 1.6 | 0.00 | 0.00 | 0.00 | 68 | 1017.1 |
| 20260506060430 | 6 | 165 | 0.0 | 1.6 | 0.00 | 0.00 | 0.00 | 61 | 1017.1 |
| 20260506050916 | 7 | 327 | 0.0 | 1.6 | 0.00 | 0.00 | 0.00 | 50 | 1016.9 |
| 20260506050409 | 8 | 327 | 0.0 | 1.6 | 0.00 | 0.00 | 0.00 | 50 | 1016.9 |
| 20260506044405 | 9 | 219 | 1.6 | 6.4 | 0.00 | 0.00 | 0.00 | 44 | 1016.7 |
| 20260506043901 | 9 | 218 | 1.6 | 4.8 | 0.00 | 0.00 | 0.00 | 44 | 1016.8 |
| 20260506042902 | 10 | 52 | 4.8 | 16.1 | 0.00 | 0.00 | 0.00 | 43 | 1016.6 |
| 20260506042401 | 10 | 69 | 8.0 | 19.3 | 0.00 | 0.00 | 0.00 | 44 | 1016.6 |
| 20260506041901 | 10 | 53 | 9.7 | 22.5 | 0.00 | 0.00 | 0.00 | 43 | 1016.6 |
| 20260506041402 | 11 | 70 | 9.7 | 22.5 | 0.00 | 0.00 | 0.00 | 42 | 1016.5 |
| 20260506040401 | 11 | 55 | 11.3 | 20.9 | 0.00 | 0.00 | 0.00 | 44 | 1016.4 |
| 20260506035901 | 10 | 53 | 9.7 | 14.5 | 0.00 | 0.00 | 0.00 | 41 | 1016.5 |
| 20260506035401 | 10 | 93 | 4.8 | 14.5 | 0.00 | 0.00 | 0.00 | 44 | 1016.5 |
| 20260506034905 | 10 | 74 | 1.6 | 12.9 | 0.00 | 0.00 | 0.00 | 47 | 1016.5 |
| 20260506034402 | 10 | 18 | 3.2 | 12.9 | 0.00 | 0.00 | 0.00 | 43 | 1016.4 |
| 20260506033901 | 11 | 59 | 8.0 | 20.9 | 0.00 | 0.00 | 0.00 | 43 | 1016.4 |
| 20260506033402 | 11 | 75 | 8.0 | 20.9 | 0.00 | 0.00 | 0.00 | 41 | 1016.4 |
| 20260506031847 | 11 | 300 | 16.1 | 27.4 | 0.00 | 0.00 | 0.00 | 40 | 1016.2 |
| 20260506031340 | 11 | 88 | 19.3 | 27.4 | 0.00 | 0.00 | 0.00 | 40 | 1016.2 |
| 20260506030834 | 11 | 69 | 16.1 | 27.4 | 0.00 | 0.00 | 0.00 | 42 | 1016.2 |
| 20260506030334 | 11 | 73 | 16.1 | 29.0 | 0.00 | 0.00 | 0.00 | 42 | 1016.2 |
| 20260506025834 | 11 | 62 | 17.7 | 29.0 | 0.00 | 0.00 | 0.00 | 38 | 1016.1 |
| 20260506025334 | 11 | 81 | 19.3 | 32.2 | 0.00 | 0.00 | 0.00 | 40 | 1016.0 |
| 20260506024834 | 11 | 83 | 19.3 | 32.2 | 0.00 | 0.00 | 0.00 | 38 | 1016.0 |
| 20260506024334 | 11 | 74 | 17.7 | 24.1 | 0.00 | 0.00 | 0.00 | 38 | 1016.0 |
| 20260506023834 | 11 | 69 | 14.5 | 22.5 | 0.00 | 0.00 | 0.00 | 37 | 1016.0 |
| 20260506023334 | 11 | 57 | 14.5 | 22.5 | 0.00 | 0.00 | 0.00 | 41 | 1016.0 |
| 20260506022835 | 11 | 97 | 16.1 | 29.0 | 0.00 | 0.00 | 0.00 | 37 | 1016.0 |
| 20260506022333 | 11 | 92 | 16.1 | 29.0 | 0.00 | 0.00 | 0.00 | 37 | 1016.0 |
| 20260506021835 | 11 | 73 | 16.1 | 29.0 | 0.00 | 0.00 | 0.00 | 38 | 1015.7 |
| 20260506021334 | 11 | 28 | 16.1 | 32.2 | 0.00 | 0.00 | 0.00 | 38 | 1015.9 |
| 20260506020834 | 11 | 96 | 17.7 | 32.2 | 0.00 | 0.00 | 0.00 | 38 | 1015.9 |
| 20260506020334 | 11 | 14 | 17.7 | 27.4 | 0.00 | 0.00 | 0.00 | 37 | 1015.7 |
| 20260506015834 | 12 | 69 | 19.3 | 32.2 | 0.00 | 0.00 | 0.00 | 38 | 1015.7 |
| 20260506015337 | 12 | 91 | 17.7 | 32.2 | 0.00 | 0.00 | 0.00 | 38 | 1015.6 |
| 20260506014836 | 12 | 74 | 14.5 | 27.4 | 0.00 | 0.00 | 0.00 | 38 | 1015.6 |
| 20260506014336 | 12 | 59 | 16.1 | 25.7 | 0.00 | 0.00 | 0.00 | 39 | 1015.6 |
| 20260506013835 | 12 | 76 | 16.1 | 25.7 | 0.00 | 0.00 | 0.00 | 38 | 1015.5 |
| 20260506013335 | 12 | 84 | 17.7 | 30.6 | 0.00 | 0.00 | 0.00 | 38 | 1015.5 |
| 20260506012834 | 12 | 336 | 19.3 | 32.2 | 0.00 | 0.00 | 0.00 | 37 | 1015.6 |
| 20260506011833 | 12 | 101 | 19.3 | 32.2 | 0.00 | 0.00 | 0.00 | 37 | 1015.6 |
| 20260506011334 | 12 | 86 | 20.9 | 33.8 | 0.00 | 0.00 | 0.00 | 38 | 1015.6 |
| 20260506010834 | 12 | 88 | 22.5 | 33.8 | 0.00 | 0.00 | 0.00 | 38 | 1015.6 |
| 20260506010334 | 12 | 67 | 24.1 | 37.0 | 0.00 | 0.00 | 0.00 | 36 | 1015.6 |
| 20260506005834 | 12 | 17 | 25.7 | 38.6 | 0.00 | 0.00 | 0.00 | 36 | 1015.6 |
| 20260506005335 | 12 | 276 | 27.4 | 41.8 | 0.00 | 0.00 | 0.00 | 37 | 1015.9 |
| 20260506004834 | 12 | 336 | 27.4 | 41.8 | 0.00 | 0.00 | 0.00 | 36 | 1015.7 |
| 20260506004335 | 12 | 79 | 25.7 | 37.0 | 0.00 | 0.00 | 0.00 | 35 | 1015.6 |
| 20260506003833 | 12 | 80 | 24.1 | 38.6 | 0.00 | 0.00 | 0.00 | 36 | 1015.7 |
| 20260506002335 | 12 | 86 | 22.5 | 38.6 | 0.00 | 0.00 | 0.00 | 35 | 1015.9 |
| 20260506001833 | 12 | 33 | 24.1 | 37.0 | 0.00 | 0.00 | 0.00 | 39 | 1015.7 |
| 20260506001334 | 12 | 91 | 25.7 | 38.6 | 0.00 | 0.00 | 0.00 | 34 | 1015.9 |
| 20260506000833 | 12 | 79 | 25.7 | 38.6 | 0.00 | 0.00 | 0.00 | 35 | 1015.4 |
| 20260506000335 | 12 | 94 | 24.1 | 35.4 | 0.00 | 0.00 | 0.00 | 38 | 1015.7 |
| 20260505235336 | 12 | 71 | 22.5 | 37.0 | 0.00 | 0.00 | 0.00 | 36 | 1015.7 |
| 20260505234838 | 12 | 74 | 24.1 | 38.6 | 0.00 | 0.00 | 0.00 | 36 | 1015.6 |
| 20260505234332 | 12 | 66 | 27.4 | 38.6 | 0.00 | 0.00 | 0.00 | 38 | 1015.5 |
| 20260505233831 | 12 | 81 | 30.6 | 53.1 | 0.00 | 0.00 | 0.00 | 36 | 1016.0 |
| 20260505233332 | 12 | 49 | 30.6 | 53.1 | 0.00 | 0.00 | 0.00 | 36 | 1015.9 |
| 20260505232830 | 12 | 28 | 25.7 | 45.1 | 0.00 | 0.00 | 0.00 | 35 | 1016.0 |
| 20260505232330 | 12 | 77 | 25.7 | 45.1 | 0.00 | 0.00 | 0.00 | 37 | 1015.7 |
| 20260505231331 | 12 | 74 | 35.4 | 48.3 | 0.00 | 0.00 | 0.00 | 36 | 1015.6 |
| 20260505230831 | 12 | 68 | 37.0 | 46.7 | 0.00 | 0.00 | 0.00 | 35 | 1016.1 |
| 20260505230331 | 12 | 69 | 33.8 | 46.7 | 0.00 | 0.00 | 0.00 | 36 | 1015.9 |
| 20260505225832 | 12 | 96 | 27.4 | 46.7 | 0.00 | 0.00 | 0.00 | 36 | 1016.6 |
| 20260505225331 | 12 | 65 | 22.5 | 38.6 | 0.00 | 0.00 | 0.00 | 35 | 1015.9 |
| 20260505224832 | 12 | 78 | 20.9 | 38.6 | 0.00 | 0.00 | 0.00 | 35 | 1015.9 |
| 20260505224331 | 12 | 90 | 20.9 | 37.0 | 0.00 | 0.00 | 0.00 | 36 | 1015.9 |
| 20260505223330 | 12 | 47 | 27.4 | 45.1 | 0.00 | 0.00 | 0.00 | 34 | 1015.9 |
| 20260505222330 | 13 | 126 | 14.5 | 37.0 | 0.00 | 0.00 | 0.00 | 32 | 1016.3 |
| 20260505221330 | 15 | 168 | 6.4 | 19.3 | 0.00 | 0.00 | 0.00 | 31 | 1015.6 |
| 20260505220329 | 15 | 309 | 4.8 | 17.7 | 0.00 | 0.00 | 0.00 | 30 | 1015.9 |
| 20260505215830 | 15 | 11 | 4.8 | 19.3 | 0.00 | 0.00 | 0.00 | 31 | 1015.7 |
| 20260505215330 | 15 | 117 | 8.0 | 20.9 | 0.00 | 0.00 | 0.00 | 31 | 1016.1 |
| 20260505214830 | 15 | 84 | 8.0 | 22.5 | 0.00 | 0.00 | 0.00 | 30 | 1015.9 |
| 20260505214331 | 15 | 34 | 12.9 | 29.0 | 0.00 | 0.00 | 0.00 | 30 | 1016.0 |
| 20260505213830 | 14 | 304 | 12.9 | 29.0 | 0.00 | 0.00 | 0.00 | 32 | 1016.2 |
| 20260505213330 | 15 | 76 | 9.7 | 20.9 | 0.00 | 0.00 | 0.00 | 30 | 1016.0 |
| 20260505212831 | 15 | 84 | 6.4 | 20.9 | 0.00 | 0.00 | 0.00 | 27 | 1015.9 |
| 20260505212330 | 15 | 59 | 6.4 | 16.1 | 0.00 | 0.00 | 0.00 | 30 | 1016.0 |
| 20260505211830 | 15 | 347 | 12.9 | 22.5 | 0.00 | 0.00 | 0.00 | 29 | 1016.0 |
| 20260505211329 | 14 | 138 | 16.1 | 29.0 | 0.00 | 0.00 | 0.00 | 34 | 1016.1 |
| 20260505210830 | 14 | 59 | 16.1 | 29.0 | 0.00 | 0.00 | 0.00 | 32 | 1016.1 |
| 20260505210331 | 14 | 66 | 16.1 | 27.4 | 0.00 | 0.00 | 0.00 | 35 | 1016.3 |
| 20260505205329 | 13 | 76 | 9.7 | 27.4 | 0.00 | 0.00 | 0.00 | 31 | 1016.4 |
| 20260505204829 | 13 | 55 | 8.0 | 20.9 | 0.00 | 0.00 | 0.00 | 36 | 1016.2 |
| 20260505204329 | 14 | 35 | 6.4 | 20.9 | 0.00 | 0.00 | 0.00 | 31 | 1016.3 |
| 20260505203829 | 15 | 19 | 4.8 | 16.1 | 0.00 | 0.00 | 0.00 | 28 | 1016.2 |
| 20260505203329 | 15 | 58 | 8.0 | 19.3 | 0.00 | 0.00 | 0.00 | 35 | 1016.2 |
| 20260505202829 | 14 | 257 | 8.0 | 19.3 | 0.00 | 0.00 | 0.00 | 31 | 1016.2 |
| 20260505201830 | 14 | 68 | 8.0 | 19.3 | 0.00 | 0.00 | 0.00 | 30 | 1016.3 |
| 20260505201330 | 15 | 132 | 6.4 | 16.1 | 0.00 | 0.00 | 0.00 | 30 | 1016.2 |
| 20260505200829 | 14 | 48 | 6.4 | 14.5 | 0.00 | 0.00 | 0.00 | 37 | 1016.2 |
| 20260505200329 | 14 | 74 | 6.4 | 14.5 | 0.00 | 0.00 | 0.00 | 34 | 1016.3 |
| 20260505195830 | 15 | 82 | 8.0 | 19.3 | 0.00 | 0.00 | 0.00 | 31 | 1016.3 |
| 20260505195335 | 14 | 340 | 9.7 | 20.9 | 0.00 | 0.00 | 0.00 | 33 | 1016.4 |
| 20260505194832 | 15 | 68 | 6.4 | 20.9 | 0.00 | 0.00 | 0.00 | 32 | 1016.3 |
| 20260505194333 | 15 | 45 | 4.8 | 12.9 | 0.00 | 0.00 | 0.00 | 36 | 1016.2 |
| 20260505193832 | 15 | 321 | 4.8 | 14.5 | 0.00 | 0.00 | 0.00 | 30 | 1016.2 |
| 20260505193323 | 15 | 47 | 3.2 | 17.7 | 0.00 | 0.00 | 0.00 | 34 | 1016.3 |
| 20260505192817 | 15 | 17 | 4.8 | 17.7 | 0.00 | 0.00 | 0.00 | 34 | 1016.3 |
| 20260505192316 | 14 | 123 | 3.2 | 12.9 | 0.00 | 0.00 | 0.00 | 35 | 1016.4 |
| 20260505191816 | 14 | 71 | 3.2 | 12.9 | 0.00 | 0.00 | 0.00 | 35 | 1016.4 |
| 20260505191314 | 15 | 103 | 3.2 | 12.9 | 0.00 | 0.00 | 0.00 | 35 | 1016.3 |
| 20260505190815 | 15 | 71 | 3.2 | 12.9 | 0.00 | 0.00 | 0.00 | 37 | 1016.3 |
| 20260505185813 | 14 | 336 | 4.8 | 11.3 | 0.00 | 0.00 | 0.00 | 37 | 1016.3 |
| 20260505185311 | 13 | 68 | 6.4 | 12.9 | 0.00 | 0.00 | 0.00 | 41 | 1016.5 |
| 20260505184811 | 13 | 40 | 8.0 | 16.1 | 0.00 | 0.00 | 0.00 | 39 | 1016.4 |
| 20260505184311 | 13 | 52 | 9.7 | 19.3 | 0.00 | 0.00 | 0.00 | 38 | 1016.5 |
| 20260505183310 | 13 | 67 | 4.8 | 14.5 | 0.00 | 0.00 | 0.00 | 41 | 1016.4 |
| 20260505182808 | 13 | 149 | 4.8 | 12.9 | 0.00 | 0.00 | 0.00 | 39 | 1016.4 |
| 20260505181308 | 13 | 90 | 3.2 | 27.4 | 0.00 | 0.00 | 0.00 | 39 | 1016.4 |
| 20260505180805 | 13 | 96 | 1.6 | 6.4 | 0.00 | 0.00 | 0.00 | 37 | 1016.3 |
| 20260505180302 | 13 | 107 | 4.8 | 9.7 | 0.00 | 0.00 | 0.00 | 38 | 1016.3 |
| 20260505175801 | 13 | 71 | 4.8 | 9.7 | 0.00 | 0.00 | 0.00 | 36 | 1016.4 |
| 20260505174801 | 13 | 68 | 1.6 | 6.4 | 0.00 | 0.00 | 0.00 | 36 | 1016.4 |
| 20260505174302 | 12 | 59 | 3.2 | 6.4 | 0.00 | 0.00 | 0.00 | 39 | 1016.4 |
| 20260505173802 | 13 | 329 | 3.2 | 6.4 | 0.00 | 0.00 | 0.00 | 36 | 1016.5 |
| 20260505173302 | 13 | 61 | 1.6 | 6.4 | 0.00 | 0.00 | 0.00 | 41 | 1016.4 |
| 20260505172801 | 14 | 85 | 1.6 | 9.7 | 0.00 | 0.00 | 0.00 | 37 | 1016.3 |
| 20260505172305 | 13 | 211 | 1.6 | 9.7 | 0.00 | 0.00 | 0.00 | 36 | 1016.4 |
| 20260505171801 | 12 | 187 | 0.0 | 4.8 | 0.00 | 0.00 | 0.00 | 41 | 1016.5 |
| 20260505171303 | 12 | 200 | 1.6 | 9.7 | 0.00 | 0.00 | 0.00 | 40 | 1016.5 |
| 20260505170800 | 12 | 291 | 1.6 | 9.7 | 0.00 | 0.00 | 0.00 | 40 | 1016.4 |
| 20260505170301 | 13 | 350 | 1.6 | 6.4 | 0.00 | 0.00 | 0.00 | 40 | 1016.5 |
| 20260505165802 | 13 | 26 | 3.2 | 8.0 | 0.00 | 0.00 | 0.00 | 39 | 1016.4 |
| 20260505164802 | 13 | 42 | 3.2 | 9.7 | 0.00 | 0.00 | 0.00 | 41 | 1016.5 |
| 20260505164301 | 13 | 37 | 1.6 | 8.0 | 0.00 | 0.00 | 0.00 | 38 | 1016.4 |
| 20260505163803 | 13 | 338 | 1.6 | 6.4 | 0.00 | 0.00 | 0.00 | 36 | 1016.5 |
| 20260505163302 | 13 | 331 | 0.0 | 3.2 | 0.00 | 0.00 | 0.00 | 39 | 1016.3 |
| 20260505162301 | 13 | 29 | 1.6 | 6.4 | 0.00 | 0.00 | 0.00 | 37 | 1016.4 |
| 20260505161801 | 13 | 109 | 1.6 | 4.8 | 0.00 | 0.00 | 0.00 | 36 | 1016.3 |
| 20260505161302 | 13 | 54 | 1.6 | 4.8 | 0.00 | 0.00 | 0.00 | 39 | 1016.3 |
| 20260505160301 | 13 | 71 | 1.6 | 6.4 | 0.00 | 0.00 | 0.00 | 38 | 1016.3 |
| 20260505153301 | 11 | 277 | 0.0 | 0.0 | 0.00 | 0.00 | 0.00 | 47 | 1016.4 |
| 20260505152802 | 11 | 278 | 0.0 | 1.6 | 0.00 | 0.00 | 0.00 | 47 | 1016.4 |
| 20260505152304 | 11 | 258 | 0.0 | 3.2 | 0.00 | 0.00 | 0.00 | 48 | 1016.4 |
| 20260505151302 | 10 | 312 | 0.0 | 1.6 | 0.00 | 0.00 | 0.00 | 53 | 1016.5 |